Regional Weather Roundup
Issued by NWS Charleston, SC

Current Version | Previous Version | Text Only | Print | Product List | Glossary Off
Versions: 1 2 3 4 5 6 7 8 9 10 11 12 13 14 15 16 17 18 19 20 21 22 23 24 25 26 27 28 29 30 31 32 33 34 35 36 37 38 39 40 41 42 43 44 45 46 47 48 49 50

000
ASUS42 KCHS 221225
RWRCHS

REGIONAL WEATHER ROUNDUP
NATIONAL WEATHER SERVICE CHARLESTON SC
700 AM EST SAT NOV 22 2014

NOTE: "FAIR" INDICATES FEW OR NO CLOUDS BELOW 12,000 FEET WITH NO
SIGNIFICANT WEATHER AND/OR OBSTRUCTIONS TO VISIBILITY.

NOT ALL STATIONS ARE QUALITY CONTROLLED BY THE NATIONAL
WEATHER SERVICE. USE DATA WITH CAUTION...ESPECIALLY
DEWPOINT OBSERVATIONS.

SCZ027-030-031-034>040-042>050-221300-
...SOUTHEAST SOUTH CAROLINA...

CITY           SKY/WX    TMP DP  RH WIND       PRES   REMARKS
N CHARLESTON   CLEAR     35  30  82 NE8       30.50S WCI  29
6HR MIN TEMP:  35; 6HR MAX TEMP:  42;

WATERFRONT PRK   N/A     45 N/A N/A N14         N/A
MOUNT PLEASANT FAIR      36  32  87 N5        30.50S WCI  32
JOHNS ISLAND   SUNNY     43  37  81 CALM      30.48S
PINOPOLIS        N/A     39  34  81 E10       30.43F WCI  32
MONCKS CORNER  FAIR      36  30  80 CALM      30.51F
SUMMERVILLE    FAIR      34  32  93 N6        30.51S WCI  29
BEAUFORT MCAS  CLEAR     41  34  76 N8        30.47S
6HR MIN TEMP:  41; 6HR MAX TEMP:  47;

BEAUFORT ARPT  FAIR      46  39  76 NE12      30.46S
HILTON HEAD IS CLEAR     50  41  71 N12       30.46
WALTERBORO     SUNNY     39  30  70 NE6       30.50R WCI  35
ALLENDALE      FAIR      36  28  75 CALM      30.49R

...SOUTHERN MIDLANDS AND PEE DEE...

CITY           SKY/WX    TMP DP  RH WIND       PRES   REMARKS
GEORGETOWN     NOT AVBL
KINGSTREE      NOT AVBL
ORANGEBURG     CLEAR     32  20  61 NE6       30.52S WCI  26
6HR MIN TEMP:  32; 6HR MAX TEMP:  41;

BARNWELL       FAIR      34  28  80 NE7       30.51R WCI  28
AIKEN          FAIR      30  23  74 NE5       30.54S WCI  25
MANNING        NOT AVBL
COLUMBIA       CLEAR     27  20  75 CALM      30.54R
6HR MIN TEMP:  27; 6HR MAX TEMP:  42;

SUMTER         CLEAR     25  17  71 NE8       30.54R WCI  17
6HR MIN TEMP:  24; 6HR MAX TEMP:  33;

FLORENCE       CLEAR     28  17  63 N5        30.55R WCI  23
6HR MIN TEMP:  27; 6HR MAX TEMP:  35;

MYRTLE BEACH   CLEAR     34  23  64 N7        30.54R WCI  28
N MYRTLE BEACH CLEAR     31  24  75 N6        30.54R WCI  25
6HR MIN TEMP:  31; 6HR MAX TEMP:  36;


$$

GAZ063-065-086>088-099>101-113>116-118-119-134>141-150-221300-
...SOUTHEAST GEORGIA...

CITY           SKY/WX    TMP DP  RH WIND       PRES   REMARKS
SAVANNAH ARPT  PTCLDY    47  37  68 NE8       30.45R
6HR MIN TEMP:  46; 6HR MAX TEMP:  50;

HUNTER AAF     CLEAR     48  40  74 NE8       30.42R
6HR MIN TEMP:  48; 6HR MAX TEMP:  49;

FORT STEWART   CLEAR     47  39  75 NE8       30.41S
6HR MIN TEMP:  45; 6HR MAX TEMP:  49;

STATESBORO     NOT AVBL
SYLVANIA       SUNNY     42  35  77 E6        30.48R
CLAXTON        FAIR      45  36  70 CALM      30.45R

...CSRA...CENTRAL AND FAR SOUTHEAST GEORGIA...

CITY           SKY/WX    TMP DP  RH WIND       PRES   REMARKS
THOMSON        CLEAR     29  29 100 CALM      30.54S
AUGUSTA-BUSH   CLEAR     32  24  72 NE5       30.50S WCI  27
6HR MIN TEMP:  27; 6HR MAX TEMP:  34;

AUGUSTA-DANIEL CLEAR     39  24  55 NE8       30.49S WCI  33
SWAINSBORO     PTSUNNY   41  36  81 E5        30.46R
VIDALIA        PTCLDY    43  37  81 NE7       30.44R
HAZLEHURST     FAIR      46  42  86 E6        30.41R
ALMA           PTCLDY    50  41  71 NE9G18    30.39S
6HR MIN TEMP:  46; 6HR MAX TEMP:  50;

WAYCROSS       CLEAR     53  48  84 E10       30.38S
JESUP          FAIR      52  46  82 NE7       30.41R
BAXLEY         FAIR      50  41  71 E8        30.40S
BRUNSWICK        N/A     59  50  72 NE15      30.38S
SAINT SIMONS   CLEAR     59  52  77 NE16      30.36S
6HR MIN TEMP:  58; 6HR MAX TEMP:  59;


$$

SCZ027-028-034-036>038-045-046-048>050-GAZ119-141-221300-
...LAKE AND SUPPLEMENTAL COASTAL OBSERVATIONS...

STATION/POSITION TIME  TEMP    WIND        PRES    WAVE   SWELL
                       AIR SEA DIR/SP/G            HT/PER HT/PER/DIR
                 (UTC) (F)     (DEG/KT/KT) (MB)    (FT/S) (FT/S/D)
UPR LAKE MARION  NOT AVBL
WINYAH BAY       1200   38     360/  4     1033.0S
LAKE MURRAY      1200   32     360/  1/  3 1033.2S
ACE BASIN NERRS  1200   41      30/  4     1031.0S
FORT PULASKI     1200   53      30/ 13/ 16 1030.9R
SAPELO ISLAND    NOT AVBL

$$

ANZ835-935-AMZ111-154-330-350-352-354-374-450-454-472-221300-
...C-MAN AND BUOY OBSERVATIONS...

STATION/POSITION TIME  TEMP    WIND        PRES    WAVE   SWELL
                       AIR SEA DIR/SP/G            HT/PER HT/PER/DIR
                 (UTC) (F)     (DEG/KT/KT) (MB)    (FT/S) (FT/S/D)
FOLLY BEACH CMAN 1200   50      30/ 16/ 18 1032.3F
BUOY 41004       1200   61 75   50/ 16/ 19 1030.9R   4/ 6   2/13
BUOY 41008       1200   64 64   50/ 25/ 29 1027.6F   7/ 7
CAPERS NEARSHORE 1100   49      30/ 14/ 17   N/A
FRIPP NEARSHORE  NOT AVBL


STATION/POSITION TIME  TEMP    WIND        PRES    WAVE   SWELL
                       AIR SEA DIR/SP/G            HT/PER HT/PER/DIR
                 (UTC) (F)     (DEG/KT/KT) (MB)    (FT/S) (FT/S/D)
5E ST. MARYS GA  1200      62                N/A     5/ 6
FRYING PAN BUOY  1200   55 63   60/ 10/ 12 1033.1R   3/ 6   3/ 70/ 6
BUOY 41025       1200   51      10/ 10/ 17 1033.8R   4/ 9   3/ 50/ 9
CAPE LOOKOUT NC  1200   42      10/ 10/ 12 1034.3R
BUOY 41002       1147   61 73   60/ 14/ 19 1031.1R   5/ 8   3/360/ 8
BUOY 41010       1200   73 78   70/ 23/ 27 1025.1F   9/ 8
ST AUGUSTINE FL  1200   68      90/ 10/ 11 1026.3R


$$


USA.gov is the U.S. government's official web portal to all federal, state and local government web resources and services.